This is the latest recevied weather packets stored in our database for station/object F5LKO-13. If no packets are shown the sender has not sent any weather packets the latest 10 day(s).
| Time | Temp. | Humidity | Pressure | Rain* | Wind** | Luminosity | Snow |
|---|---|---|---|---|---|---|---|
| 1777640668 | 22.78° C | 99% | 1020.7 hPa | 0 mm | - | 86 W/m² | - |
| 1777640371 | 23.33° C | 99% | 1020.8 hPa | 0 mm | - | 91 W/m² | - |
| 1777640055 | 23.89° C | 99% | 1020.8 hPa | 0 mm | - | 94 W/m² | - |
| 1777639749 | 22.78° C | 99% | 1020.9 hPa | 0 mm | - | 84 W/m² | - |
| 1777639443 | 22.78° C | 99% | 1020.9 hPa | 0 mm | - | 81 W/m² | - |
| 1777639137 | 22.78° C | 99% | 1020.9 hPa | 0 mm | - | 83 W/m² | - |
| 1777638831 | 23.33° C | 99% | 1020.9 hPa | 0 mm | - | 85 W/m² | - |
| 1777638533 | 22.78° C | 99% | 1020.9 hPa | 0 mm | - | 93 W/m² | - |
| 1777638219 | 21.67° C | 99% | 1021 hPa | 0 mm | - | 46 W/m² | - |
| 1777637913 | 22.78° C | 99% | 1021 hPa | 0 mm | - | 15 W/m² | - |
| 1777637607 | 22.22° C | 99% | 1021.1 hPa | 0 mm | - | 66 W/m² | - |
| 1777637301 | 21.11° C | 99% | 1021.2 hPa | 0 mm | - | 59 W/m² | - |
| 1777636995 | 21.11° C | 99% | 1021.3 hPa | 0 mm | - | 21 W/m² | - |
| 1777636699 | 21.67° C | 99% | 1021.3 hPa | 0 mm | - | 13 W/m² | - |
| 1777636384 | 23.33° C | 99% | 1021.3 hPa | 0 mm | - | 22 W/m² | - |
| 1777636078 | 23.89° C | 99% | 1021.4 hPa | 0 mm | - | 98 W/m² | - |
| 1777635772 | 23.89° C | 99% | 1021.4 hPa | 0 mm | - | 37 W/m² | - |
| 1777635466 | 23.33° C | 99% | 1021.3 hPa | 0 mm | - | 96 W/m² | - |
| 1777635160 | 22.78° C | 99% | 1021.3 hPa | 0 mm | - | 99 W/m² | - |
| 1777634863 | 21.67° C | 99% | 1021.5 hPa | 0 mm | - | 84 W/m² | - |
| 1777634548 | 21.11° C | 99% | 1021.6 hPa | 0 mm | - | 109 W/m² | - |
| 1777634242 | 21.11° C | 99% | 1021.6 hPa | 0 mm | - | 65 W/m² | - |
| 1777633936 | 22.78° C | 99% | 1021.7 hPa | 0 mm | - | 17 W/m² | - |
| 1777633630 | 23.33° C | 99% | 1021.7 hPa | 0 mm | - | 25 W/m² | - |
| 1777633325 | 23.33° C | 99% | 1021.7 hPa | 0 mm | - | 101 W/m² | - |
* Rain latest hour (hover to see other rain measurements)
** Current wind speed in m/s (hover to see current wind gust speed)